Home > Weather > Yuzhno-Sakhalinsk > Past weeks

Flag for Russia Past Weather in Yuzhno-Sakhalinsk, Russia — Yesterday and Last 2 Weeks

Now
55 °F

Partly sunny.


Feels Like: 51 °F
Forecast: 43 / 69 °F
Wind: 17 mph from Northeast

Location: Yuzhno Airport-Sakhalinsk

Current Time: Jun 26, 2016 at 3:49:57 PM

Latest Report: Jun 26, 2016 at 3:00 PM


Visibility: N/A

Pressure: 29.62 "Hg

Humidity: 82%

Dew Point: 50 °F

Location of Yuzhno-SakhalinskLocation

Past Weather in Yuzhno-Sakhalinsk — Graph

°F

Yuzhno-Sakhalinsk Temperature Yesterday

Maximum temperature yesterday: 61 °F (at 1:00 PM)
Minimum temperature yesterday: 45 °F (at 2:00 AM)
Average temperature yesterday: 52 °F

High & Low Weather Summary for the Past Weeks

 TemperatureHumidityPressure
High75 °F (Jun 21, 12:30 PM)100% (Jun 11, 11:00 PM)30.09 "Hg (Jun 11, 11:00 PM)
Low43 °F (Jun 13, 11:00 PM)43% (Jun 24, 2:30 PM)29.62 "Hg (Jun 25, 9:00 PM)
Average54 °F85%29.87 "Hg
* Reported Jun 11 2:00 PM — Jun 26 2:30 PM, Yuzhno-Sakhalinsk, Weather by CustomWeather, © 2016

Note: Actual official high and low records may vary slightly from our data, if they occured in-between our weather recording intervals... More about our weather records

Advertising

Yuzhno-Sakhalinsk Weather History for the Previous 24 Hours

Scroll right to see more
 ConditionsComfort  
Time TempWeatherWind HumidityBarometerVisibility
2:30 PM
Sun, Jun 26
55 °FPartly sunny.17 mph77%29.62 "HgN/A
2:00 PM54 °FPartly sunny.17 mph88%29.62 "HgN/A
1:30 PM54 °FPartly sunny.17 mph82%29.62 "HgN/A
1:00 PM54 °FPartly sunny.15 mph88%29.62 "HgN/A
12:30 PM54 °FPartly sunny.10 mph88%29.62 "HgN/A
12:00 PM54 °FPartly sunny.15 mph88%29.62 "HgN/A
11:30 AM54 °FPartly sunny.15 mph88%29.62 "HgN/A
11:00 AM54 °FPartly sunny.10 mph88%29.62 "HgN/A
10:30 AM52 °FBroken clouds.13 mph88%29.62 "HgN/A
10:00 AM50 °FBroken clouds.13 mph94%29.62 "HgN/A
9:30 AM50 °FSprinkles. Broken clouds.8 mph94%29.62 "HgN/A
9:00 AM48 °FSprinkles. Broken clouds.10 mph100%29.62 "HgN/A
8:30 AM48 °FPartly sunny.13 mph94%29.62 "HgN/A
8:00 AM48 °FPartly sunny.10 mph94%29.62 "HgN/A
7:30 AM48 °FPartly sunny.10 mph94%29.62 "HgN/A
7:00 AM48 °FSprinkles. Partly sunny.17 mph94%29.62 "HgN/A
6:30 AM48 °FPartly sunny.15 mph94%29.62 "HgN/A
6:00 AM46 °FPartly sunny.15 mph100%29.62 "HgN/A
5:00 AM48 °FPassing clouds.10 mph94%29.62 "HgN/A
4:00 AM48 °FSprinkles. Passing clouds.10 mph94%29.62 "HgN/A
3:00 AM48 °FSprinkles. Passing clouds.10 mph94%29.62 "HgN/A
2:00 AM48 °FSprinkles. Passing clouds.10 mph100%29.65 "HgN/A
1:00 AM48 °FSprinkles. Passing clouds.13 mph100%29.65 "HgN/A
12:00 AM48 °FSprinkles. Passing clouds.13 mph100%29.62 "HgN/A
11:00 PM
Sat, Jun 25
48 °FSprinkles. Passing clouds.13 mph100%29.62 "HgN/A
10:30 PM50 °FSprinkles. Passing clouds.17 mph94%29.62 "HgN/A
10:00 PM50 °FSprinkles. Passing clouds.17 mph94%29.62 "HgN/A
9:30 PM50 °FSprinkles. Passing clouds.15 mph94%29.62 "HgN/A
9:00 PM52 °FPartly sunny.15 mph82%29.62 "HgN/A
8:30 PM52 °FPartly sunny.13 mph82%29.65 "HgN/A
8:00 PM52 °FPartly sunny.6 mph82%29.65 "HgN/A
7:30 PM52 °FPartly sunny.8 mph82%29.68 "HgN/A
7:00 PM52 °FPartly sunny.13 mph82%29.65 "HgN/A
6:30 PM52 °FPartly sunny.8 mph82%29.68 "HgN/A
6:00 PM52 °FPartly sunny.10 mph82%29.68 "HgN/A
5:30 PM54 °FPartly sunny.10 mph77%29.68 "HgN/A
5:00 PM54 °FPartly sunny.13 mph77%29.68 "HgN/A
4:30 PM55 °FPartly sunny.10 mph77%29.65 "HgN/A
4:00 PM54 °FPartly sunny.17 mph77%29.65 "HgN/A
3:30 PM55 °FScattered clouds.15 mph72%29.65 "HgN/A
3:00 PM59 °FScattered clouds.13 mph63%29.68 "HgN/A
Weather by CustomWeather, © 2016

See weather overviewHow to use our weather pages